Location: Roland
(31.1349°N, 85.4372°W)
Time: 04:20:09
(UTC+00:00)

Courier 1B - Pass Details

Date: 25 April 2021
Orbit: 962 x 1209 km, 28.3° (Epoch: 07 May)

Event Time Altitude Azimuth Distance (km) Brightness Sun altitude
Rises 21:57:56 0° 269° (W) 3,653 11.8 28.6°
Reaches altitude 10° 22:01:15 10° 254° (WSW) 2,689 11.3 27.8°
Maximum altitude 22:05:54 21° 207° (SSW) 2,003 9.7 26.8°
Drops below altitude 10° 22:10:35 10° 160° (SSE) 2,693 9.7 25.8°
Sets 22:13:55 0° 145° (SE) 3,660 10.2 25.1°
